QPF
0.00 0.00 0.00 0.00 0.00 0.00 0.00 0.00 0.00 0.00 0.00 0.00 0.00 0.00 0.00 0.00 0.00 0.00 0.00 0.00 0.00 0.00 0.00 0.00 0.00 0.00 0.00 0.00 0.00 0.00 0.00 0.00 0.00 0.00 0.00 0.00 0.00 0.00 0.00 0.00 0.00 0.00 0.00 0.00 0.00
0.00 0.00 0.00 0.00 0.00 0.00 0.00 0.00 0.00 0.00 0.00 0.00 0.00 0.00 0.00 0.00 0.00 0.00 0.00 0.00 0.00 0.00 0.00 0.00 0.00 0.00 0.00 0.00 0.00 0.00 0.00 0.00 0.00 0.00 0.00 0.00 0.00 0.00 0.00 0.00 0.00 0.00 0.00 0.00 0.00
0.00 0.00 0.00 0.00 0.00 0.00 0.00 0.00 0.00 0.00 0.00 0.00 0.00 0.00 0.00 0.00 0.00 0.00 0.00 0.00 0.00 0.00 0.00 0.00 0.00 0.00 0.00 0.00 0.00 0.00 0.00 0.00 0.00 0.00 0.00 0.00 0.00 0.00 0.00 0.00 0.00 0.00 0.00 0.00 0.00
0.00 0.00 0.00 0.00 0.00 0.00 0.00 0.00 0.00 0.00 0.00 0.00 0.00 0.00 0.00 0.00 0.00 0.00 0.00 0.00 0.00 0.00 0.00 0.00 0.00 0.00 0.00 0.00 0.00 0.00 0.00 0.00 0.00 0.00 0.00 0.00 0.00 0.00 0.00 0.00 0.00 0.00 0.00 0.00 0.00
0.00 0.00 0.00 0.00 0.00 0.00 0.00 0.00 0.00 0.00 0.00 0.00 0.00 0.00 0.00 0.00 0.00 0.00 0.00 0.00 0.00 0.00 0.00 0.00 0.00 0.00 0.00 0.00 0.00 0.00 0.00 0.00 0.00 0.00 0.00 0.00 0.00 0.00 0.00 0.00 0.00 0.00 0.00 0.00 0.00
0.00 0.00 0.00 0.00 0.00 0.00 0.00 0.00 0.00 0.00 0.00 0.00 0.00 0.00 0.00 0.00 0.00 0.00 0.00 0.00 0.00 0.00 0.00 0.00 0.00 0.00 0.00 0.00 0.00 0.00 0.00 0.00 0.00 0.00 0.00 0.00 0.00 0.00 0.00 0.00 0.00 0.00 0.00 0.00 0.00
0.00 0.00 0.00 0.00 0.00 0.00 0.00 0.00 0.00 0.00 0.00 0.00 0.00 0.00 0.00 0.00 0.00 0.00 0.00 0.00 0.00 0.00 0.00 0.00 0.00 0.00 0.00 0.00 0.00 0.00 0.00 0.00 0.00 0.00 0.00 0.00 0.00 0.00 0.00 0.00 0.00 0.00 0.00 0.00 0.00
0.00 0.00 0.00 0.00 0.00 0.00 0.00 0.00 0.00 0.00 0.00 0.00 0.00 0.00 0.00 0.00 0.00 0.00 0.00 0.00 0.00 0.00 0.00 0.00 0.00 0.00 0.00 0.00 0.00 0.00 0.00 0.00 0.00 0.00 0.00 0.00 0.00 0.00 0.00 0.00 0.00 0.00 0.00 0.00 0.00
0.00 0.00 0.00 0.00 0.00 0.00 0.00 0.00 0.00 0.00 0.00 0.00 0.00 0.00 0.00 0.00 0.00 0.00 0.00 0.00 0.00 0.00 0.00 0.00 0.00 0.00 0.00 0.00 0.00 0.00 0.00 0.00 0.00 0.00 0.00 0.00 0.00 0.00 0.00 0.00 0.00 0.00 0.00 0.00 0.00
0.00 0.00 0.00 0.00 0.00 0.00 0.00 0.00 0.00 0.00 0.00 0.00 0.00 0.00 0.00 0.00 0.00 0.00 0.00 0.00 0.00 0.00 0.00 0.00 0.00 0.00 0.00 0.00 0.00 0.00 0.00 0.00 0.00 0.00 0.00 0.00 0.00 0.00 0.00 0.00 0.00 0.00 0.00 0.00 0.00
0.00 0.00 0.00 0.00 0.00 0.00 0.00 0.00 0.00 0.00 0.00 0.00 0.00 0.00 0.00 0.00 0.00 0.00 0.00 0.00 0.00 0.00 0.00 0.00 0.00 0.00 0.00 0.00 0.00 0.00 0.00 0.00 0.00 0.00 0.00 0.00 0.00 0.00 0.00 0.00 0.00 0.00 0.00 0.00 0.00
0.00 0.00 0.00 0.00 0.00 0.00 0.00 0.00 0.00 0.00 0.00 0.00 0.00 0.00 0.00 0.00 0.00 0.00 0.00 0.00 0.00 0.00 0.00 0.00 0.00 0.00 0.00 0.00 0.00 0.00 0.00 0.00 0.00 0.00 0.00 0.00 0.00 0.00 0.00 0.00 0.00 0.00 0.00 0.00 0.00
0.00 0.00 0.00 0.00 0.00 0.00 0.00 0.00 0.00 0.00 0.00 0.00 0.00 0.00 0.00 0.00 0.00 0.00 0.00 0.00 0.00 0.00 0.00 0.00 0.00 0.00 0.00 0.00 0.00 0.00 0.00 0.00 0.00 0.00 0.00 0.00 0.00 0.00 0.00 0.00 0.00 0.00 0.00 0.00 0.00
0.00 0.00 0.00 0.00 0.00 0.00 0.00 0.00 0.00 0.00 0.00 0.00 0.00 0.00 0.00 0.00 0.00 0.00 0.00 0.00 0.00 0.00 0.00 0.00 0.00 0.00 0.00 0.00 0.00 0.00 0.00 0.00 0.00 0.00 0.00 0.00 0.00 0.00 0.00 0.00 0.00 0.00 0.00 0.00 0.00
0.00 0.00 0.00 0.00 0.00 0.00 0.00 0.00 0.00 0.00 0.00 0.00 0.00 0.00 0.00 0.00 0.00 0.00 0.00 0.00 0.00 0.00 0.00 0.00 0.00 0.00 0.00 0.00 0.00 0.00 0.00 0.00 0.00 0.00 0.00 0.00 0.00 0.00 0.00 0.00 0.00 0.00 0.00 0.00 0.00
0.00 0.00 0.00 0.00 0.00 0.00 0.00 0.00 0.00 0.00 0.00 0.00 0.00 0.00 0.00 0.00 0.00 0.00 0.00 0.00 0.00 0.00 0.00 0.00 0.00 0.00 0.00 0.00 0.00 0.00 0.00 0.00 0.00 0.00 0.00 0.00 0.00 0.00 0.00 0.00 0.00 0.00 0.00 0.00 0.00
0.00 0.00 0.00 0.00 0.00 0.00 0.00 0.00 0.00 0.00 0.00 0.00 0.00 0.00 0.00 0.00 0.00 0.00 0.00 0.00 0.00 0.00 0.00 0.00 0.00 0.00 0.00 0.00 0.00 0.00 0.00 0.00 0.00 0.00 0.00 0.00 0.00 0.00 0.00 0.00 0.00 0.00 0.00 0.00 0.00
0.00 0.00 0.00 0.00 0.00 0.00 0.00 0.00 0.00 0.00 0.00 0.00 0.00 0.00 0.00 0.00 0.00 0.00 0.00 0.00 0.00 0.00 0.00 0.00 0.00 0.00 0.00 0.00 0.00 0.00 0.00 0.00 0.00 0.00 0.00 0.00 0.00 0.00 0.00 0.00 0.00 0.00 0.00 0.00 0.00
0.00 0.00 0.00 0.00 0.00 0.00 0.00 0.00 0.00 0.00 0.00 0.00 0.00 0.00 0.00 0.00 0.00 0.00 0.00 0.00 0.00 0.00 0.00 0.00 0.00 0.00 0.00 0.00 0.00 0.00 0.00 0.00 0.00 0.00 0.00 0.00 0.00 0.00 0.00 0.00 0.00 0.00 0.00 0.00 0.00
0.00 0.00 0.00 0.00 0.00 0.00 0.00 0.00 0.00 0.00 0.00 0.00 0.00 0.00 0.00 0.00 0.00 0.00 0.00 0.00 0.00 0.00 0.00 0.00 0.00 0.00 0.00 0.00 0.00 0.00 0.00 0.00 0.00 0.00 0.00 0.00 0.00 0.00 0.00 0.00 0.00 0.00 0.00 0.00 0.00
0.00 0.00 0.00 0.00 0.00 0.00 0.00 0.00 0.00 0.00 0.00 0.00 0.00 0.00 0.00 0.00 0.00 0.00 0.00 0.00 0.00 0.00 0.00 0.00 0.00 0.00 0.00 0.00 0.00 0.00 0.00 0.00 0.00 0.00 0.00 0.00 0.00 0.00 0.00 0.00 0.00 0.00 0.00 0.00 0.00
0.00 0.00 0.00 0.00 0.00 0.00 0.00 0.00 0.00 0.00 0.00 0.00 0.00 0.00 0.00 0.00 0.00 0.00 0.00 0.00 0.00 0.00 0.00 0.00 0.00 0.00 0.00 0.00 0.00 0.00 0.00 0.00 0.00 0.00 0.00 0.00 0.00 0.00 0.00 0.00 0.00 0.00 0.00 0.00 0.00
0.00 0.00 0.00 0.00 0.00 0.00 0.00 0.00 0.00 0.00 0.00 0.00 0.00 0.00 0.00 0.00 0.00 0.00 0.00 0.00 0.00 0.00 0.00 0.00 0.00 0.00 0.00 0.00 0.00 0.00 0.00 0.00 0.00 0.00 0.00 0.00 0.00 0.00 0.00 0.00 0.00 0.00 0.00 0.00 0.00
0.00 0.00 0.00 0.00 0.00 0.00 0.00 0.00 0.00 0.00 0.00 0.00 0.00 0.00 0.00 0.00 0.00 0.00 0.00 0.00 0.00 0.00 0.00 0.00 0.00 0.00 0.00 0.00 0.00 0.00 0.00 0.00 0.00 0.00 0.00 0.00 0.00 0.00 0.00 0.00 0.00 0.00 0.00 0.00 0.00
0.00 0.00 0.00 0.00 0.00 0.00 0.00 0.00 0.00 0.00 0.00 0.00 0.00 0.00 0.00 0.00 0.00 0.00 0.00 0.00 0.00 0.00 0.00 0.00 0.00 0.00 0.00 0.00 0.00 0.00 0.00 0.00 0.00 0.00 0.00 0.00 0.00 0.00 0.00 0.00 0.00 0.00 0.00 0.00 0.00
0.00 0.00 0.00 0.00 0.00 0.00 0.00 0.00 0.00 0.00 0.00 0.00 0.00 0.00 0.00 0.00 0.00 0.00 0.00 0.00 0.00 0.00 0.00 0.00 0.00 0.00 0.00 0.00 0.00 0.00 0.00 0.00 0.00 0.00 0.00 0.00 0.00 0.00 0.00 0.00 0.00 0.00 0.00 0.00 0.00
0.00 0.00 0.00 0.00 0.00 0.00 0.00 0.00 0.00 0.00 0.00 0.00 0.00 0.00 0.00 0.00 0.00 0.00 0.00 0.00 0.00 0.00 0.00 0.00 0.00 0.00 0.00 0.00 0.00 0.00 0.00 0.00 0.00 0.00 0.00 0.00 0.00 0.00 0.00 0.00 0.00 0.00 0.00 0.00 0.00
MSLP
1016.95 1016.72 1016.62 1016.36 1016.23 1016.14 1015.87 1015.70 1015.71 1015.54 1015.14 1015.01 1014.69 1014.33 1014.30 1014.03 1013.42 1012.45 1010.60 1009.49 1009.34 1009.85 1010.07 1009.90 1010.00 1009.47 1009.07 1008.25 1008.12 1007.61 1006.09 1004.08 1003.51 1003.51 1003.23 1003.45 1004.16 1004.17 1005.08 1005.13 1006.06 1006.37 1006.50 1007.63 1008.16
1016.87 1016.62 1016.46 1016.15 1016.04 1015.88 1015.70 1015.55 1015.33 1015.28 1014.90 1014.76 1014.41 1014.23 1014.01 1013.74 1012.11 1010.11 1009.10 1009.41 1009.60 1009.65 1008.91 1008.76 1008.66 1008.74 1008.22 1007.66 1007.51 1006.89 1005.41 1004.12 1003.97 1004.00 1003.89 1003.65 1004.11 1003.98 1005.49 1005.05 1005.50 1005.99 1006.80 1008.42 1008.52
1016.58 1016.24 1016.04 1015.87 1015.70 1015.55 1015.41 1015.17 1015.15 1014.88 1014.61 1014.43 1014.19 1014.03 1013.77 1013.35 1010.71 1008.02 1008.84 1009.33 1009.49 1009.40 1008.20 1007.81 1007.98 1007.94 1007.22 1007.00 1006.82 1006.28 1005.10 1004.38 1004.82 1004.84 1004.71 1004.33 1004.22 1004.74 1005.13 1005.02 1005.32 1005.41 1005.61 1007.71 1008.58
1016.23 1015.93 1015.73 1015.57 1015.38 1015.29 1015.25 1015.01 1014.95 1014.70 1014.42 1014.14 1013.99 1013.84 1013.51 1012.29 1008.74 1007.90 1008.76 1009.16 1009.33 1008.92 1008.48 1007.90 1007.62 1007.22 1006.70 1006.46 1006.17 1006.10 1005.51 1005.09 1004.84 1004.75 1004.97 1004.86 1004.62 1004.30 1004.79 1004.94 1005.04 1005.15 1005.85 1006.82 1008.35
1015.97 1015.71 1015.50 1015.35 1015.29 1015.18 1015.02 1014.79 1014.69 1014.39 1014.13 1014.05 1013.88 1013.62 1012.98 1010.42 1007.60 1008.18 1008.96 1009.27 1009.01 1008.52 1007.89 1007.54 1007.15 1006.59 1006.13 1005.89 1006.19 1005.90 1005.00 1004.92 1004.80 1004.82 1004.85 1004.87 1004.67 1004.45 1004.57 1004.91 1005.46 1005.26 1006.08 1006.73 1007.70
1015.78 1015.52 1015.28 1015.10 1015.02 1014.85 1014.65 1014.51 1014.32 1014.09 1013.89 1013.77 1013.66 1013.55 1011.80 1008.55 1007.56 1008.07 1008.30 1008.65 1008.06 1007.94 1007.56 1007.40 1006.79 1006.53 1005.82 1005.76 1005.70 1005.24 1004.94 1004.67 1004.53 1004.51 1004.66 1004.87 1004.55 1005.22 1005.09 1006.28 1005.87 1005.49 1005.82 1006.38 1006.98
1015.43 1015.21 1014.94 1014.81 1014.68 1014.49 1014.32 1014.09 1013.94 1013.73 1013.65 1013.60 1013.43 1012.81 1010.44 1007.77 1007.50 1007.83 1008.10 1007.92 1007.89 1007.64 1007.35 1007.33 1007.21 1006.87 1005.98 1005.60 1005.68 1005.41 1005.10 1004.36 1004.17 1004.29 1004.53 1005.05 1004.86 1005.67 1006.62 1006.15 1006.08 1006.29 1006.46 1007.08 1007.52
1015.28 1014.98 1014.75 1014.51 1014.32 1014.14 1013.89 1013.57 1013.40 1013.31 1013.36 1013.31 1013.22 1011.89 1008.27 1007.45 1007.61 1007.80 1007.71 1007.77 1007.98 1007.91 1007.62 1007.50 1007.39 1006.70 1006.18 1006.03 1005.69 1005.16 1004.77 1003.38 1004.12 1004.54 1005.07 1005.30 1004.66 1007.00 1007.02 1006.83 1007.01 1007.25 1007.32 1007.70 1008.40
1015.10 1014.77 1014.53 1014.26 1014.03 1013.83 1013.61 1013.29 1012.98 1013.03 1013.10 1013.12 1012.55 1010.54 1007.15 1008.16 1007.40 1006.86 1007.30 1006.75 1007.45 1007.65 1007.64 1007.66 1007.17 1006.24 1006.12 1005.27 1004.44 1004.39 1003.10 1003.64 1003.98 1004.71 1004.80 1005.04 1004.66 1007.39 1007.73 1007.77 1007.93 1008.17 1008.47 1008.63 1008.77
1014.85 1014.55 1014.27 1013.95 1013.71 1013.64 1013.52 1013.22 1012.92 1012.87 1012.87 1012.21 1010.97 1009.51 1006.87 1005.89 1005.95 1006.47 1007.02 1006.83 1006.61 1006.99 1007.13 1006.90 1006.20 1005.15 1004.66 1004.20 1003.02 1003.62 1003.50 1003.90 1003.88 1004.90 1004.88 1005.01 1006.51 1007.90 1008.44 1008.47 1008.83 1009.31 1009.78 1010.06 1010.41
1014.77 1014.39 1014.01 1013.67 1013.48 1013.45 1013.10 1012.45 1012.40 1011.37 1010.22 1007.94 1007.29 1006.50 1005.69 1005.60 1005.85 1005.88 1006.49 1006.43 1006.19 1006.06 1005.39 1005.83 1004.62 1004.75 1005.34 1005.18 1005.03 1004.85 1004.42 1004.18 1004.76 1005.54 1005.51 1006.04 1007.12 1008.25 1008.82 1009.06 1009.52 1010.06 1010.67 1011.16 1011.95
1014.61 1014.20 1013.79 1013.43 1013.31 1013.36 1012.99 1009.84 1008.81 1008.57 1007.20 1006.62 1006.37 1006.03 1005.69 1005.53 1004.92 1005.41 1005.83 1005.48 1005.35 1004.87 1005.55 1005.53 1005.34 1006.21 1006.26 1006.09 1005.67 1005.12 1004.58 1004.47 1005.37 1005.83 1005.79 1006.22 1007.09 1008.28 1008.88 1009.54 1010.18 1010.65 1011.24 1011.72 1012.23
1014.40 1014.02 1013.61 1013.32 1013.18 1013.04 1010.52 1008.70 1008.33 1008.21 1006.47 1005.66 1005.31 1004.89 1004.78 1004.94 1004.58 1005.02 1005.34 1004.88 1004.73 1004.89 1005.07 1005.12 1006.31 1006.96 1006.72 1006.37 1005.97 1005.32 1005.30 1004.95 1005.40 1005.78 1005.90 1005.89 1006.42 1007.55 1008.80 1009.67 1010.48 1011.06 1011.50 1011.98 1012.49
1014.01 1013.62 1013.38 1013.17 1013.33 1010.23 1008.85 1008.39 1008.12 1008.12 1005.61 1005.02 1004.46 1004.59 1004.60 1004.47 1004.92 1005.42 1005.30 1004.74 1004.89 1004.78 1005.49 1006.26 1007.20 1007.27 1007.07 1007.01 1007.04 1005.91 1005.88 1006.23 1005.89 1005.64 1004.58 1005.63 1004.89 1006.78 1008.17 1009.21 1010.35 1010.98 1011.45 1011.93 1012.54
1013.68 1013.32 1013.08 1012.92 1011.09 1009.00 1008.41 1008.15 1007.95 1007.70 1004.96 1004.81 1004.36 1004.61 1004.39 1004.32 1004.79 1005.31 1005.57 1005.03 1004.66 1005.29 1006.01 1006.41 1007.19 1007.44 1007.40 1007.74 1007.87 1006.65 1007.07 1006.71 1006.18 1005.57 1005.07 1005.02 1005.75 1006.29 1007.90 1008.61 1010.21 1010.90 1011.57 1012.11 1012.73
1013.22 1013.03 1012.89 1011.97 1010.77 1008.50 1008.34 1008.09 1007.89 1006.35 1004.24 1004.48 1004.43 1004.45 1004.36 1004.69 1005.00 1005.27 1005.32 1005.56 1005.73 1005.98 1006.30 1007.05 1008.13 1008.32 1008.38 1008.47 1008.41 1008.03 1007.13 1006.54 1006.11 1005.24 1004.68 1004.31 1005.77 1005.27 1007.01 1008.99 1010.25 1011.03 1011.56 1012.03 1012.53
1012.57 1012.39 1012.43 1010.34 1008.23 1008.45 1008.22 1007.39 1006.02 1004.45 1004.86 1004.69 1004.63 1004.74 1004.80 1005.16 1005.41 1005.46 1005.36 1005.50 1005.42 1005.85 1006.04 1007.54 1008.14 1008.90 1009.07 1008.26 1008.33 1007.68 1006.63 1005.07 1004.63 1004.40 1003.84 1005.41 1006.16 1006.55 1008.75 1010.06 1010.97 1011.45 1011.74 1012.12 1012.69
1011.68 1011.42 1010.78 1009.47 1008.92 1008.67 1007.75 1006.37 1004.75 1004.23 1004.32 1005.04 1005.13 1005.31 1005.19 1005.74 1005.95 1006.04 1005.96 1005.77 1006.60 1006.50 1006.16 1006.34 1007.66 1008.68 1009.37 1009.00 1008.48 1008.09 1007.61 1005.93 1004.89 1004.05 1004.04 1006.23 1005.69 1006.79 1009.21 1010.75 1011.42 1011.86 1012.14 1012.40 1013.02
1011.44 1010.07 1009.20 1008.61 1008.89 1009.00 1007.16 1005.02 1003.91 1003.98 1004.52 1004.88 1005.38 1005.26 1005.48 1006.09 1006.22 1006.29 1006.28 1006.14 1006.94 1007.29 1007.05 1006.92 1007.64 1009.25 1009.54 1009.49 1009.42 1008.16 1007.70 1008.12 1006.82 1006.38 1005.83 1004.96 1007.03 1008.73 1009.85 1010.84 1011.53 1011.85 1012.21 1012.68 1013.40
1010.06 1008.51 1008.02 1008.40 1008.68 1008.05 1006.33 1004.74 1004.38 1004.80 1004.95 1005.05 1004.82 1005.42 1005.18 1005.76 1006.30 1006.28 1006.21 1006.97 1007.53 1008.00 1008.13 1008.13 1008.11 1009.19 1009.72 1009.96 1009.77 1009.19 1008.93 1008.36 1007.47 1006.18 1005.32 1005.13 1006.43 1006.69 1009.15 1010.17 1011.18 1011.77 1012.26 1012.92 1013.51
1009.48 1007.35 1008.24 1008.27 1008.32 1006.80 1005.16 1004.28 1004.51 1005.01 1005.15 1005.16 1004.90 1005.36 1005.60 1005.99 1006.31 1006.18 1006.37 1007.39 1007.81 1008.32 1008.63 1008.69 1008.99 1009.31 1009.87 1009.16 1008.51 1009.09 1008.79 1008.85 1008.40 1007.57 1006.42 1005.94 1006.05 1007.94 1008.96 1010.09 1011.15 1011.91 1012.50 1013.08 1013.57
1008.98 1006.85 1007.95 1008.19 1007.07 1005.74 1004.80 1004.63 1005.26 1004.93 1005.53 1005.59 1005.58 1005.50 1005.88 1006.33 1006.48 1006.62 1006.70 1007.22 1008.06 1008.43 1008.55 1009.35 1009.26 1008.60 1008.62 1009.50 1009.92 1009.52 1008.92 1008.94 1008.26 1007.59 1007.70 1007.60 1007.46 1008.99 1009.83 1010.51 1011.34 1011.79 1012.61 1013.13 1013.73
1009.23 1007.66 1007.63 1007.55 1006.05 1005.28 1005.07 1005.16 1005.18 1005.16 1005.22 1005.52 1005.62 1005.94 1006.40 1006.55 1006.82 1006.90 1007.27 1007.82 1008.41 1008.65 1008.87 1009.59 1009.16 1008.47 1008.78 1009.57 1009.99 1009.55 1009.41 1009.48 1009.35 1009.22 1007.97 1007.54 1007.39 1009.30 1010.21 1010.78 1011.26 1011.84 1012.34 1012.98 1013.77
1009.95 1007.66 1007.25 1007.11 1007.35 1006.81 1006.02 1005.26 1005.03 1005.50 1005.39 1005.67 1005.77 1006.22 1006.49 1006.58 1006.99 1006.95 1007.38 1008.14 1008.61 1008.92 1009.73 1010.05 1009.44 1009.02 1008.12 1007.89 1008.80 1009.03 1009.27 1009.50 1009.44 1008.66 1007.58 1007.38 1007.73 1008.58 1009.30 1010.02 1010.47 1011.27 1012.08 1012.59 1013.19
1010.89 1010.24 1010.49 1008.04 1007.28 1007.83 1007.21 1006.32 1005.51 1005.47 1005.83 1005.98 1006.03 1005.98 1006.05 1006.13 1006.44 1006.80 1007.10 1007.80 1008.72 1009.34 1009.74 1009.96 1009.43 1009.01 1008.67 1008.60 1008.91 1008.75 1008.62 1008.88 1008.85 1008.63 1008.17 1007.60 1007.64 1008.04 1008.49 1009.13 1009.72 1010.49 1011.46 1012.26 1012.81
1012.27 1011.80 1010.71 1009.68 1009.12 1008.25 1007.45 1006.64 1006.44 1006.08 1006.11 1005.71 1005.80 1005.38 1005.73 1005.86 1006.01 1005.89 1006.73 1007.34 1007.76 1008.57 1009.11 1009.65 1009.26 1009.12 1008.63 1008.44 1008.55 1008.40 1008.25 1008.27 1008.12 1008.17 1007.92 1007.87 1007.75 1007.87 1008.25 1008.95 1009.54 1010.46 1011.27 1011.92 1012.47
1013.98 1013.45 1012.40 1009.92 1009.00 1008.46 1007.71 1007.54 1007.19 1007.23 1006.36 1006.13 1005.93 1005.76 1005.67 1005.70 1005.66 1005.88 1006.46 1007.05 1007.56 1007.97 1008.68 1009.12 1009.06 1008.99 1008.31 1007.96 1008.23 1007.66 1007.31 1007.28 1007.39 1007.49 1007.49 1007.06 1006.87 1007.01 1007.91 1008.75 1009.23 1009.85 1010.73 1011.51 1012.05
Thickness
5723 5725 5725 5726 5726 5725 5726 5730 5734 5736 5739 5740 5742 5744 5745 5746 5751 5760 5768 5780 5782 5779 5778 5777 5773 5776 5780 5778 5783 5786 5768 5776 5785 5784 5792 5812 5801 5821 5819 5810 5806 5809 5809 5807 5812
5717 5719 5720 5722 5722 5723 5723 5727 5730 5732 5735 5736 5738 5740 5742 5743 5757 5767 5779 5777 5777 5776 5779 5773 5767 5770 5767 5771 5774 5770 5770 5780 5796 5793 5790 5805 5804 5813 5795 5802 5799 5803 5808 5800 5804
5713 5716 5717 5718 5720 5721 5722 5725 5726 5729 5732 5733 5735 5736 5738 5740 5758 5776 5777 5773 5773 5774 5782 5782 5776 5769 5764 5772 5771 5773 5769 5788 5783 5788 5793 5794 5799 5806 5794 5788 5798 5797 5806 5798 5795
5708 5710 5712 5714 5716 5717 5718 5721 5722 5724 5727 5729 5731 5732 5735 5745 5752 5777 5773 5770 5769 5772 5772 5770 5766 5758 5757 5755 5774 5759 5775 5780 5783 5790 5785 5781 5795 5797 5798 5797 5809 5809 5807 5803 5787
5704 5705 5706 5707 5709 5712 5714 5716 5718 5721 5723 5723 5725 5728 5736 5747 5762 5771 5766 5764 5766 5768 5765 5762 5757 5760 5752 5762 5762 5758 5773 5779 5783 5783 5783 5788 5783 5792 5793 5800 5805 5809 5800 5795 5790
5701 5702 5703 5703 5704 5706 5709 5711 5714 5717 5720 5721 5721 5723 5736 5745 5770 5766 5765 5763 5766 5764 5762 5761 5759 5765 5762 5759 5757 5770 5772 5774 5779 5780 5783 5775 5784 5782 5790 5790 5794 5800 5798 5797 5796
5700 5700 5701 5701 5702 5703 5705 5708 5711 5715 5716 5716 5717 5724 5735 5751 5766 5763 5762 5761 5763 5761 5753 5761 5762 5754 5763 5754 5766 5765 5753 5770 5774 5776 5774 5778 5769 5765 5774 5787 5786 5787 5789 5787 5786
5697 5698 5699 5700 5701 5703 5705 5708 5711 5712 5713 5713 5714 5724 5742 5762 5760 5757 5760 5755 5757 5758 5757 5759 5760 5755 5754 5759 5754 5749 5755 5756 5763 5767 5766 5769 5755 5752 5770 5773 5771 5773 5777 5776 5773
5694 5695 5696 5697 5698 5700 5703 5707 5710 5710 5709 5709 5715 5726 5743 5753 5749 5760 5758 5752 5750 5751 5752 5753 5752 5748 5748 5744 5745 5747 5747 5745 5748 5762 5762 5761 5760 5745 5757 5757 5756 5760 5761 5762 5765
5692 5693 5694 5695 5697 5698 5699 5703 5705 5706 5706 5711 5721 5722 5745 5748 5757 5755 5756 5754 5746 5743 5738 5740 5743 5743 5749 5746 5736 5732 5738 5740 5741 5746 5753 5750 5734 5733 5738 5742 5741 5743 5743 5743 5743
5689 5691 5693 5695 5696 5696 5698 5707 5709 5712 5718 5737 5739 5738 5746 5756 5759 5750 5751 5745 5746 5741 5731 5738 5738 5725 5727 5735 5736 5733 5733 5731 5736 5738 5737 5729 5721 5719 5725 5728 5726 5726 5727 5727 5721
5688 5690 5692 5694 5694 5693 5697 5720 5724 5726 5724 5740 5739 5739 5747 5751 5738 5743 5753 5736 5734 5727 5731 5726 5715 5722 5727 5726 5726 5729 5728 5726 5727 5730 5731 5724 5714 5714 5717 5715 5714 5714 5713 5715 5715
5688 5689 5691 5692 5692 5694 5714 5723 5731 5730 5725 5734 5742 5741 5745 5747 5737 5735 5744 5742 5732 5723 5726 5719 5713 5717 5716 5716 5715 5723 5716 5720 5715 5721 5726 5724 5713 5709 5709 5708 5706 5706 5708 5707 5705
5689 5690 5691 5691 5692 5715 5718 5727 5729 5729 5721 5721 5733 5737 5743 5746 5726 5743 5746 5741 5729 5721 5720 5711 5711 5706 5707 5701 5704 5701 5719 5709 5708 5707 5710 5721 5715 5704 5703 5699 5695 5696 5697 5698 5698
5690 5692 5692 5692 5707 5715 5722 5726 5729 5723 5691 5725 5728 5751 5745 5734 5733 5729 5743 5737 5723 5717 5715 5702 5700 5699 5696 5693 5696 5699 5703 5699 5701 5701 5707 5709 5697 5701 5699 5692 5686 5687 5686 5687 5686
5692 5692 5692 5698 5705 5722 5724 5726 5721 5702 5688 5713 5727 5721 5723 5726 5725 5729 5728 5735 5730 5712 5712 5701 5703 5696 5690 5692 5691 5695 5696 5698 5699 5702 5684 5709 5694 5709 5696 5682 5677 5677 5677 5678 5678
5694 5695 5694 5707 5719 5721 5723 5719 5699 5696 5718 5705 5707 5716 5714 5708 5710 5714 5712 5709 5706 5692 5690 5687 5685 5687 5686 5685 5691 5693 5692 5694 5690 5685 5694 5693 5682 5686 5675 5670 5664 5662 5664 5667 5667
5698 5699 5704 5711 5714 5716 5718 5708 5685 5708 5707 5711 5707 5705 5699 5700 5699 5699 5698 5696 5697 5697 5693 5687 5667 5677 5678 5675 5672 5676 5677 5683 5664 5684 5698 5678 5675 5680 5672 5661 5658 5657 5656 5657 5654
5695 5706 5710 5714 5710 5708 5708 5694 5701 5708 5710 5700 5698 5691 5691 5691 5692 5691 5690 5692 5688 5688 5675 5677 5670 5670 5671 5673 5670 5673 5670 5673 5668 5671 5665 5689 5667 5661 5658 5650 5647 5647 5646 5643 5639
5704 5711 5711 5708 5706 5706 5701 5689 5702 5707 5704 5702 5687 5689 5683 5685 5679 5683 5684 5686 5676 5680 5682 5671 5658 5663 5661 5664 5664 5662 5667 5652 5662 5649 5652 5673 5661 5669 5648 5646 5641 5638 5635 5632 5629
5699 5703 5700 5702 5701 5700 5689 5698 5700 5703 5701 5691 5690 5681 5682 5676 5678 5679 5678 5675 5676 5670 5672 5667 5656 5648 5650 5654 5659 5654 5652 5650 5651 5652 5650 5648 5662 5655 5648 5642 5632 5627 5625 5622 5618
5692 5690 5695 5694 5686 5696 5690 5695 5688 5693 5692 5686 5687 5683 5675 5672 5667 5666 5666 5668 5674 5669 5657 5657 5651 5647 5651 5650 5648 5647 5647 5645 5639 5639 5640 5637 5640 5642 5636 5632 5625 5623 5617 5615 5611
5678 5682 5690 5687 5675 5682 5688 5684 5685 5682 5682 5677 5673 5676 5672 5662 5651 5660 5659 5667 5664 5658 5651 5648 5643 5640 5633 5635 5633 5632 5637 5635 5632 5628 5627 5627 5637 5629 5623 5618 5617 5612 5612 5608 5602
5667 5666 5673 5675 5668 5662 5664 5672 5673 5679 5675 5674 5669 5667 5659 5653 5656 5649 5648 5651 5654 5651 5636 5636 5635 5631 5635 5638 5635 5624 5625 5626 5621 5618 5628 5628 5627 5619 5618 5615 5616 5611 5607 5604 5598
5652 5639 5633 5647 5656 5644 5651 5659 5662 5659 5666 5665 5657 5660 5654 5644 5646 5641 5647 5643 5640 5630 5632 5627 5618 5629 5633 5632 5625 5624 5624 5621 5614 5616 5608 5620 5614 5619 5617 5616 5615 5612 5605 5597 5591
5631 5626 5635 5635 5633 5638 5636 5649 5646 5652 5652 5653 5650 5661 5655 5645 5646 5641 5641 5637 5632 5634 5626 5623 5612 5618 5616 5625 5620 5613 5621 5617 5617 5613 5611 5609 5606 5619 5619 5614 5607 5600 5595 5589 5585
5617 5616 5617 5631 5634 5632 5637 5636 5637 5638 5651 5653 5651 5650 5646 5649 5655 5655 5651 5644 5637 5628 5618 5614 5612 5605 5602 5621 5610 5604 5620 5616 5614 5614 5609 5601 5614 5620 5609 5602 5601 5598 5592 5584 5580